Location: Martley
(52.2333°N, 2.3667°W)
Time: 20:16:07
(UTC+00:00)

Cosmos 1484 Rocket - Pass Details

Date: 11 December 2019
Orbit: 505 x 561 km, 97.4° (Epoch: 25 January)

Event Time Altitude Azimuth Distance (km) Brightness Sun altitude
Rises 04:55:28 0° 18° (NNE) 2,746 6.6 -28.1°
Reaches altitude 10° 04:57:42 10° 24° (NNE) 1,839 5.7 -27.8°
Enters shadow 05:01:19 45° 88° (E) 755 3.8 -27.2°
Exits shadow 05:06:04 - 176° (S) 2,111 5.9 -26.5°
Sets 05:07:25 0° 179° (S) 2,670 6.4 -26.3°
